Minot, ND

1:07 PM CDT on June 26, 2017 (GMT -0500)
Minot International

Weather History for KMOT - September, 2012

Change the Weather History Date:

Saturday, September 8, 2012

  Actual Average Record
Temperature  
Mean Temperature 60 °F 61 °F  
Max Temperature 72 °F 73 °F 101 °F (1906)
Min Temperature 48 °F 49 °F 32 °F (1920)
Degree Days  
Heating Degree Days 5 6  
Month to date heating degree days 18 37  
Since 1 July heating degree days 31 108  
Cooling Degree Days 0 2  
Month to date cooling degree days 27 17  
Year to date cooling degree days 580 428  
Growing Degree Days 10 (Base 50)    
Moisture  
Dew Point 36 °F    
Average Humidity 50    
Maximum Humidity 77    
Minimum Humidity 22    
Precipitation  
Precipitation 0.00 in 0.05 in 2.64 in (2009)
Month to date precipitation 0.08 0.41  
Year to date precipitation 10.83 13.85  
Sea Level Pressure  
Sea Level Pressure 30.14 in    
Wind  
Wind Speed 12 mph (NW)    
Max Wind Speed 22 mph    
Max Gust Speed 28 mph    
Visibility 10 miles    
Events      
T = Trace of Precipitation, MM = Missing Value Source: NWS Daily Summary

Daily Weather History Graph

Daily Weather History Graph

Search for Another Location

Airport or City:

Trip Planner

Search our weather history database for the weather conditions in past years. The results will help you decide how hot, cold, wet, or windy it might be!

Date:

Astronomy

Sep. 08, 2012 Rise Set
Actual Time 7:13 AM CDT 8:11 PM CDT
Civil Twilight 6:41 AM CDT 8:42 PM CDT
Nautical Twilight 6:03 AM CDT 9:20 PM CDT
Astronomical Twilight 5:22 AM CDT 10:00 PM CDT
Moon No Moon Rise 3:30 PM CDT (9/8)
Length of Visible Light 14h 01m
Length of Day
12h 57m
Waning Gibbous, 48% of the Moon is Illuminated
Sep 8
Waning Gibbous
Sep 15
New
Sep 22
First Quarter
Sep 29
Full
Oct 8
Last Quarter

Hourly Weather History & Observations

Time (CDT) Temp. Dew Point Humidity Pressure Visibility Wind Dir Wind Speed Gust Speed Precip Events Conditions
12:54 AM 55.9 °F 39.9 °F 55% 30.06 in 10.0 mi SW 11.5 mph - N/A   Clear
1:54 AM 55.0 °F 39.9 °F 57% 30.04 in 10.0 mi SW 10.4 mph - N/A   Clear
2:54 AM 59.0 °F 37.0 °F 44% 30.01 in 10.0 mi WSW 13.8 mph - N/A   Clear
3:54 AM 60.1 °F 37.9 °F 44% 30.00 in 10.0 mi WSW 11.5 mph - N/A   Clear
4:54 AM 60.1 °F 37.9 °F 44% 30.00 in 10.0 mi West 13.8 mph - N/A   Clear
5:54 AM 57.9 °F 39.9 °F 51% 30.04 in 10.0 mi NW 17.3 mph - N/A   Clear
6:54 AM 54.0 °F 44.1 °F 69% 30.09 in 10.0 mi NW 15.0 mph - N/A   Clear
7:54 AM 52.0 °F 45.0 °F 77% 30.13 in 10.0 mi NW 13.8 mph - N/A   Clear
8:54 AM 54.0 °F 44.1 °F 69% 30.16 in 10.0 mi NNW 17.3 mph 23.0 mph N/A   Clear
9:54 AM 55.9 °F 42.1 °F 60% 30.19 in 10.0 mi NNW 17.3 mph 25.3 mph N/A   Clear
10:54 AM 59.0 °F 39.9 °F 49% 30.20 in 10.0 mi NNW 16.1 mph 21.9 mph N/A   Clear
11:54 AM 62.1 °F 37.9 °F 41% 30.21 in 10.0 mi NW 13.8 mph 19.6 mph N/A   Clear
12:54 PM 64.9 °F 36.0 °F 34% 30.21 in 10.0 mi NNW 11.5 mph 23.0 mph N/A   Clear
1:54 PM 66.9 °F 33.1 °F 28% 30.21 in 10.0 mi NW 13.8 mph 23.0 mph N/A   Clear
2:54 PM 69.8 °F 33.8 °F 27% 30.20 in 10.0 mi NW 15.0 mph 24.2 mph N/A   Clear
3:54 PM 71.1 °F 30.9 °F 23% 30.19 in 10.0 mi NNW 16.1 mph 20.7 mph N/A   Clear
4:54 PM 71.1 °F 30.0 °F 22% 30.18 in 10.0 mi NNW 17.3 mph 21.9 mph N/A   Clear
5:54 PM 71.1 °F 30.0 °F 22% 30.17 in 10.0 mi NNW 10.4 mph - N/A   Clear
6:54 PM 69.1 °F 30.9 °F 24% 30.17 in 10.0 mi North 6.9 mph - N/A   Clear
7:54 PM 62.1 °F 33.1 °F 34% 30.19 in 10.0 mi North 4.6 mph - N/A   Clear
8:54 PM 54.0 °F 30.9 °F 41% 30.19 in 10.0 mi NNW 3.5 mph - N/A   Clear
9:54 PM 51.8 °F 32.0 °F 47% 30.18 in 10.0 mi Calm Calm - N/A   Clear
10:54 PM 48.9 °F 35.1 °F 59% 30.20 in 10.0 mi SW 3.5 mph - N/A   Clear
11:54 PM 50.0 °F 34.0 °F 54% 30.20 in 10.0 mi WSW 6.9 mph - N/A   Clear